User: anonymous   Login
Location: *
(37.5724°S, 58.0067°E)
Time: 14:32:31
(UTC+00:00)
Language:

Cosmos 1000 Rocket - Orbit

View from above orbital plane
View from above orbital plane
View from above satellite
View from above satellite

Ground track
Ground track

The orbit data is extracted from the following two-line orbital elements,

1 10777U 78034B   20333.55999030 +.00000104 +00000-0 +89671-4 0  9995
2 10777 082.9441 013.1086 0024720 267.3427 202.1058 13.77435443143879
Epoch (UTC): 28 November 2020 13:26:23
Eccentricity: 0.0024720
inclination: 82.9441°
perigee height: 955 km
apogee height: 991 km
right ascension of ascending node: 13.1086°
argument of perigee: 267.3427°
revolutions per day: 13.77435443
mean anomaly at epoch: 202.1058°
orbit number at epoch: 14387

The dashed part of the orbit path shows where the satellite is in the earth's shadow,  

DLR